West Bend, WI

8:32 PM CST on December 10, 2016 (GMT -0600)
West Bend Municipal

Weather History for KETB - July, 2013

Change the Weather History Date:

Friday, July 19, 2013

  Actual Average Record
Temperature  
Mean Temperature 82 °F -  
Max Temperature 91 °F 82 °F 97 °F (1932)
Min Temperature 73 °F 62 °F 44 °F (1929)
Cooling Degree Days 17    
Growing Degree Days 32 (Base 50)    
Moisture  
Dew Point 64 °F    
Average Humidity 53    
Maximum Humidity 69    
Minimum Humidity 39    
Precipitation  
Precipitation 0.00 in - - ()
Sea Level Pressure  
Sea Level Pressure 29.80 in    
Wind  
Wind Speed 13 mph (WSW)    
Max Wind Speed 21 mph    
Max Gust Speed 26 mph    
Visibility 10 miles    
Events      
Averages and records for this station are not official NWS values.
T = Trace of Precipitation, MM = Missing Value Source: NWS Daily Summary

Daily Weather History Graph

Daily Weather History Graph

Search for Another Location

Airport or City:

Trip Planner

Search our weather history database for the weather conditions in past years. The results will help you decide how hot, cold, wet, or windy it might be!

Date:

Astronomy

Jul. 19, 2013 Rise Set
Actual Time 5:29 AM CDT 8:27 PM CDT
Civil Twilight 4:55 AM CDT 9:01 PM CDT
Nautical Twilight 4:12 AM CDT 9:44 PM CDT
Astronomical Twilight 3:20 AM CDT 10:35 PM CDT
Moon 5:29 PM CDT (7/19) 2:10 AM CDT (7/19)
Length of Visible Light 16h 06m
Length of Day
14h 58m
Waxing Gibbous, 87% of the Moon is Illuminated
Jul 19
Waxing Gibbous
Jul 22
Full
Jul 29
Last Quarter
Aug 6
New
Aug 14
First Quarter

Hourly Weather History & Observations

Time (CDT) Temp. Heat Index Dew Point Humidity Pressure Visibility Wind Dir Wind Speed Gust Speed Precip Events Conditions
12:15 AM 80.6 °F 83.2 °F 68.0 °F 65% 29.90 in 10.0 mi SSW 10.4 mph - N/A   Clear
12:35 AM 80.6 °F 83.2 °F 68.0 °F 65% 29.89 in 10.0 mi SW 11.5 mph 17.3 mph N/A   Clear
12:55 AM 80.6 °F 83.2 °F 68.0 °F 65% 29.88 in 10.0 mi SW 11.5 mph 19.6 mph N/A   Clear
1:35 AM 80.6 °F 83.2 °F 68.0 °F 65% 29.88 in 10.0 mi SW 13.8 mph 17.3 mph N/A   Clear
1:55 AM 80.6 °F 83.2 °F 68.0 °F 65% 29.87 in 10.0 mi SW 13.8 mph 20.7 mph N/A   Clear
2:15 AM 78.8 °F - 68.0 °F 69% 29.86 in 10.0 mi SW 11.5 mph 18.4 mph N/A   Clear
2:35 AM 78.8 °F - 68.0 °F 69% 29.86 in 10.0 mi SW 15.0 mph 18.4 mph N/A   Clear
2:55 AM 78.8 °F - 68.0 °F 69% 29.85 in 10.0 mi SW 9.2 mph 18.4 mph N/A   Clear
3:15 AM 78.8 °F - 68.0 °F 69% 29.84 in 10.0 mi SW 10.4 mph 17.3 mph N/A   Clear
3:35 AM 78.8 °F - 66.2 °F 65% 29.83 in 10.0 mi SW 11.5 mph 17.3 mph N/A   Clear
3:55 AM 78.8 °F - 66.2 °F 65% 29.83 in 10.0 mi SW 10.4 mph - N/A   Clear
4:15 AM 78.8 °F - 66.2 °F 65% 29.82 in 10.0 mi SW 9.2 mph - N/A   Clear
4:35 AM 78.8 °F - 66.2 °F 65% 29.82 in 10.0 mi SW 12.7 mph 19.6 mph N/A   Clear
4:55 AM 78.8 °F - 64.4 °F 61% 29.82 in 10.0 mi SW 13.8 mph 17.3 mph N/A   Clear
5:15 AM 78.8 °F - 64.4 °F 61% 29.81 in 10.0 mi SW 12.7 mph 16.1 mph N/A   Clear
5:35 AM 78.8 °F - 64.4 °F 61% 29.81 in 10.0 mi SW 11.5 mph 18.4 mph N/A   Clear
5:55 AM 78.8 °F - 64.4 °F 61% 29.81 in 10.0 mi SW 11.5 mph 19.6 mph N/A   Clear
6:15 AM 78.8 °F - 64.4 °F 61% 29.81 in 10.0 mi SW 15.0 mph 18.4 mph N/A   Clear
6:35 AM 78.8 °F - 64.4 °F 61% 29.80 in 10.0 mi SW 15.0 mph 20.7 mph N/A   Clear
6:55 AM 80.6 °F 82.3 °F 64.4 °F 58% 29.80 in 10.0 mi SW 15.0 mph 26.5 mph N/A   Clear
7:15 AM 80.6 °F 82.3 °F 64.4 °F 58% 29.80 in 10.0 mi SW 17.3 mph 25.3 mph N/A   Clear
7:35 AM 80.6 °F 82.3 °F 64.4 °F 58% 29.81 in 10.0 mi WSW 20.7 mph 26.5 mph N/A   Clear
7:55 AM 82.4 °F 83.9 °F 64.4 °F 54% 29.81 in 10.0 mi SW 13.8 mph 25.3 mph N/A   Scattered Clouds
8:15 AM 82.4 °F 83.9 °F 64.4 °F 54% 29.82 in 10.0 mi West 19.6 mph 23.0 mph N/A   Scattered Clouds
8:35 AM 82.4 °F 83.9 °F 64.4 °F 54% 29.82 in 10.0 mi WSW 15.0 mph 23.0 mph N/A   Scattered Clouds
8:55 AM 82.4 °F 83.9 °F 64.4 °F 54% 29.81 in 10.0 mi WSW 17.3 mph 26.5 mph N/A   Clear
9:15 AM 84.2 °F 85.6 °F 64.4 °F 51% 29.81 in 10.0 mi WSW 13.8 mph 20.7 mph N/A   Clear
9:35 AM 82.4 °F 83.9 °F 64.4 °F 54% 29.80 in 10.0 mi WSW 11.5 mph 20.7 mph N/A   Clear
9:55 AM 84.2 °F 85.6 °F 64.4 °F 51% 29.79 in 10.0 mi WSW 15.0 mph 24.2 mph N/A   Clear
10:15 AM 84.2 °F 85.6 °F 64.4 °F 51% 29.80 in 10.0 mi West 17.3 mph 26.5 mph N/A   Clear
10:35 AM 86.0 °F 87.3 °F 64.4 °F 48% 29.79 in 10.0 mi WSW 11.5 mph 21.9 mph N/A   Clear
10:55 AM 86.0 °F 87.3 °F 64.4 °F 48% 29.79 in 10.0 mi WSW 15.0 mph 24.2 mph N/A   Clear
11:15 AM 86.0 °F 87.3 °F 64.4 °F 48% 29.79 in 10.0 mi SW 18.4 mph 24.2 mph N/A   Clear
11:35 AM 86.0 °F 86.6 °F 62.6 °F 45% 29.78 in 10.0 mi WSW 16.1 mph 24.2 mph N/A   Clear
11:55 AM 84.2 °F 85.6 °F 64.4 °F 51% 29.78 in 10.0 mi SW 10.4 mph 20.7 mph N/A   Clear
12:15 PM 87.8 °F 89.4 °F 64.4 °F 46% 29.78 in 10.0 mi WSW 12.7 mph 21.9 mph N/A   Clear
12:35 PM 87.8 °F 88.5 °F 62.6 °F 43% 29.77 in 10.0 mi SW 16.1 mph 20.7 mph N/A   Clear
12:55 PM 89.6 °F 91.1 °F 64.4 °F 43% 29.77 in 10.0 mi SW 16.1 mph 24.2 mph N/A   Clear
1:15 PM 87.8 °F 90.4 °F 66.2 °F 49% 29.76 in 10.0 mi SW 13.8 mph 21.9 mph N/A   Clear
1:35 PM 89.6 °F 91.1 °F 64.4 °F 43% 29.76 in 10.0 mi WSW 13.8 mph 23.0 mph N/A   Clear
1:55 PM 89.6 °F 91.1 °F 64.4 °F 43% 29.76 in 10.0 mi WSW 16.1 mph 25.3 mph N/A   Clear
2:15 PM 87.8 °F 89.4 °F 64.4 °F 46% 29.76 in 10.0 mi SW 18.4 mph 21.9 mph N/A   Clear
2:35 PM 89.6 °F 91.1 °F 64.4 °F 43% 29.76 in 10.0 mi WSW 15.0 mph 26.5 mph N/A   Clear
2:55 PM 89.6 °F 91.1 °F 64.4 °F 43% 29.76 in 10.0 mi WSW 18.4 mph 23.0 mph N/A   Scattered Clouds
3:15 PM 91.4 °F 94.0 °F 66.2 °F 43% 29.75 in 10.0 mi WSW 17.3 mph 20.7 mph N/A   Mostly Cloudy
3:35 PM 87.8 °F 90.4 °F 66.2 °F 49% 29.75 in 10.0 mi West 17.3 mph 23.0 mph N/A   Mostly Cloudy
4:15 PM 87.8 °F 91.4 °F 68.0 °F 52% 29.75 in 10.0 mi WSW 15.0 mph 21.9 mph N/A   Mostly Cloudy
4:35 PM 89.6 °F 91.1 °F 64.4 °F 43% 29.75 in 10.0 mi West 13.8 mph 23.0 mph N/A   Mostly Cloudy
5:15 PM 89.6 °F 91.1 °F 64.4 °F 43% 29.74 in 10.0 mi West 15.0 mph 20.7 mph N/A   Scattered Clouds
5:35 PM 89.6 °F 90.1 °F 62.6 °F 40% 29.74 in 10.0 mi WSW 16.1 mph 20.7 mph N/A   Clear
5:55 PM 87.8 °F 87.6 °F 60.8 °F 40% 29.73 in 10.0 mi WSW 13.8 mph 20.7 mph N/A   Clear
6:15 PM 87.8 °F 88.5 °F 62.6 °F 43% 29.73 in 10.0 mi West 11.5 mph - N/A   Scattered Clouds
6:35 PM 87.8 °F 88.5 °F 62.6 °F 43% 29.73 in 10.0 mi WSW 11.5 mph 18.4 mph N/A   Scattered Clouds
6:55 PM 87.8 °F 88.5 °F 62.6 °F 43% 29.74 in 10.0 mi WSW 12.7 mph 18.4 mph N/A   Clear
7:15 PM 86.0 °F 86.6 °F 62.6 °F 45% 29.75 in 10.0 mi West 13.8 mph 20.7 mph N/A   Clear
7:35 PM 86.0 °F 86.6 °F 62.6 °F 45% 29.75 in 10.0 mi West 9.2 mph - N/A   Scattered Clouds
7:55 PM 84.2 °F 85.0 °F 62.6 °F 48% 29.75 in 10.0 mi NW 9.2 mph - N/A   Scattered Clouds
8:15 PM 82.4 °F 82.0 °F 57.2 °F 42% 29.76 in 10.0 mi WNW 9.2 mph - N/A   Scattered Clouds
8:35 PM 82.4 °F 81.7 °F 55.4 °F 39% 29.76 in 10.0 mi West 11.5 mph - N/A   Clear
8:55 PM 80.6 °F 80.5 °F 55.4 °F 42% 29.77 in 10.0 mi WNW 5.8 mph - N/A   Clear
9:15 PM 78.8 °F - 55.4 °F 44% 29.78 in 10.0 mi WNW 4.6 mph - N/A   Clear
9:35 PM 78.8 °F - 55.4 °F 44% 29.79 in 10.0 mi WNW 3.5 mph - N/A   Clear
9:55 PM 77.0 °F - 55.4 °F 47% 29.80 in 10.0 mi WNW 4.6 mph - N/A   Clear
10:15 PM 77.0 °F - 57.2 °F 50% 29.81 in 10.0 mi WNW 4.6 mph - N/A   Clear
10:35 PM 77.0 °F - 59.0 °F 54% 29.82 in 10.0 mi West 4.6 mph - N/A   Clear
11:15 PM 73.4 °F - 59.0 °F 61% 29.82 in 10.0 mi West 5.8 mph - N/A   Clear
11:35 PM 73.4 °F - 59.0 °F 61% 29.82 in 10.0 mi West 5.8 mph - N/A   Clear
11:55 PM 73.4 °F - 59.0 °F 61% 29.83 in 10.0 mi WNW 4.6 mph - N/A   Clear